| time (UTC) | temp F | wind direction | speed MPH | gust MPH | rain 1hr in | rain 24hr in | rain mn in | humidity % | barometer mb |
| 20260507191437 | 64 | 281 | 2.0 | 6.0 | 0.00 | 0.00 | 0.00 | 69 | 1028.4 |
| 20260507190935 | 64 | 301 | 3.0 | 6.0 | 0.00 | 0.00 | 0.00 | 70 | 1028.5 |
| 20260507190435 | 63 | 324 | 3.0 | 6.0 | 0.00 | 0.00 | 0.00 | 71 | 1028.6 |
| 20260507185935 | 63 | 301 | 3.0 | 6.0 | 0.00 | 0.00 | 0.00 | 73 | 1028.7 |
| 20260507185436 | 62 | 269 | 3.0 | 8.0 | 0.00 | 0.00 | 0.00 | 71 | 1028.7 |
| 20260507184930 | 63 | 294 | 3.0 | 8.0 | 0.00 | 0.00 | 0.00 | 69 | 1028.8 |
| 20260507184429 | 64 | 17 | 2.0 | 8.0 | 0.00 | 0.00 | 0.00 | 69 | 1028.8 |
| 20260507183929 | 64 | 331 | 2.0 | 8.0 | 0.00 | 0.00 | 0.00 | 69 | 1028.9 |
| 20260507183431 | 64 | 341 | 2.0 | 6.0 | 0.00 | 0.00 | 0.00 | 71 | 1028.9 |
| 20260507182929 | 63 | 245 | 2.0 | 7.0 | 0.00 | 0.00 | 0.00 | 71 | 1028.9 |
| 20260507182428 | 63 | 44 | 2.0 | 7.0 | 0.00 | 0.00 | 0.00 | 72 | 1029.0 |
| 20260507181923 | 63 | 91 | 2.0 | 5.0 | 0.00 | 0.00 | 0.00 | 72 | 1028.9 |
| 20260507181423 | 62 | 59 | 2.0 | 5.0 | 0.00 | 0.00 | 0.00 | 72 | 1028.8 |
| 20260507180922 | 62 | 117 | 2.0 | 9.0 | 0.00 | 0.00 | 0.00 | 72 | 1029.1 |
| 20260507180423 | 62 | 342 | 3.0 | 9.0 | 0.00 | 0.00 | 0.00 | 71 | 1028.8 |
| 20260507175922 | 62 | 74 | 2.0 | 7.0 | 0.00 | 0.00 | 0.00 | 74 | 1028.8 |
| 20260507175424 | 61 | 42 | 2.0 | 8.0 | 0.00 | 0.00 | 0.00 | 72 | 1029.0 |
| 20260507174921 | 61 | 46 | 2.0 | 8.0 | 0.00 | 0.00 | 0.00 | 73 | 1029.0 |
| 20260507174418 | 62 | 36 | 2.0 | 8.0 | 0.00 | 0.00 | 0.00 | 73 | 1029.0 |
| 20260507173916 | 62 | 26 | 3.0 | 8.0 | 0.00 | 0.00 | 0.00 | 72 | 1029.0 |
| 20260507173417 | 62 | 321 | 2.0 | 6.0 | 0.00 | 0.00 | 0.00 | 71 | 1028.9 |
| 20260507172917 | 62 | 292 | 2.0 | 8.0 | 0.00 | 0.00 | 0.00 | 72 | 1028.9 |
| 20260507172417 | 62 | 26 | 2.0 | 8.0 | 0.00 | 0.00 | 0.00 | 72 | 1028.9 |
| 20260507171915 | 62 | 0 | 2.0 | 7.0 | 0.00 | 0.00 | 0.00 | 73 | 1029.1 |
| 20260507171415 | 61 | 9 | 2.0 | 7.0 | 0.00 | 0.00 | 0.00 | 72 | 1029.0 |
| 20260507170916 | 61 | 53 | 2.0 | 6.0 | 0.00 | 0.00 | 0.00 | 73 | 1029.0 |
| 20260507170413 | 61 | 39 | 2.0 | 6.0 | 0.00 | 0.00 | 0.00 | 73 | 1029.0 |
| 20260507165911 | 61 | 34 | 2.0 | 7.0 | 0.00 | 0.00 | 0.00 | 73 | 1029.1 |
| 20260507165410 | 61 | 321 | 2.0 | 7.0 | 0.00 | 0.00 | 0.00 | 73 | 1029.1 |
| 20260507164905 | 60 | 88 | 2.0 | 7.0 | 0.00 | 0.00 | 0.00 | 75 | 1029.0 |
| 20260507164405 | 60 | 61 | 2.0 | 6.0 | 0.00 | 0.00 | 0.00 | 75 | 1029.0 |
| 20260507163904 | 59 | 69 | 2.0 | 5.0 | 0.00 | 0.00 | 0.00 | 76 | 1029.0 |
| 20260507163405 | 59 | 266 | 2.0 | 4.0 | 0.00 | 0.00 | 0.00 | 76 | 1029.0 |
| 20260507162905 | 59 | 35 | 2.0 | 4.0 | 0.00 | 0.00 | 0.00 | 76 | 1029.0 |
| 20260507162405 | 58 | 80 | 1.0 | 4.0 | 0.00 | 0.00 | 0.00 | 77 | 1029.1 |
| 20260507161900 | 58 | 298 | 2.0 | 6.0 | 0.00 | 0.00 | 0.00 | 78 | 1029.1 |
| 20260507161357 | 58 | 24 | 2.0 | 6.0 | 0.00 | 0.00 | 0.00 | 78 | 1029.0 |
| 20260507160855 | 57 | 51 | 2.0 | 5.0 | 0.00 | 0.00 | 0.00 | 78 | 1029.1 |
| 20260507160352 | 57 | 19 | 1.0 | 4.0 | 0.00 | 0.00 | 0.00 | 78 | 1029.2 |
| 20260507155854 | 57 | 47 | 1.0 | 5.0 | 0.00 | 0.00 | 0.00 | 78 | 1029.2 |
| 20260507155350 | 57 | 82 | 2.0 | 5.0 | 0.00 | 0.00 | 0.00 | 79 | 1029.2 |
| 20260507154850 | 57 | 44 | 2.0 | 4.0 | 0.00 | 0.00 | 0.00 | 78 | 1029.2 |
| 20260507154349 | 56 | 11 | 1.0 | 4.0 | 0.00 | 0.00 | 0.00 | 78 | 1029.2 |
| 20260507153942 | 56 | 26 | 1.0 | 6.0 | 0.00 | 0.00 | 0.00 | 79 | 1029.2 |
| 20260507153849 | 56 | 26 | 1.0 | 6.0 | 0.00 | 0.00 | 0.00 | 79 | 1029.2 |
| 20260507153614 | 56 | 342 | 2.0 | 6.0 | 0.00 | 0.00 | 0.00 | 80 | 1029.2 |
| 20260507153349 | 56 | 342 | 2.0 | 6.0 | 0.00 | 0.00 | 0.00 | 80 | 1029.2 |
| 20260507152845 | 56 | 347 | 3.0 | 7.0 | 0.00 | 0.00 | 0.00 | 80 | 1029.2 |
| 20260507152627 | 56 | 9 | 1.0 | 4.0 | 0.00 | 0.00 | 0.00 | 79 | 1029.3 |
| 20260507152344 | 56 | 355 | 2.0 | 7.0 | 0.00 | 0.00 | 0.00 | 79 | 1029.3 |
| 20260507151844 | 56 | 9 | 1.0 | 4.0 | 0.00 | 0.00 | 0.00 | 79 | 1029.3 |
| 20260507151346 | 56 | 40 | 1.0 | 4.0 | 0.00 | 0.00 | 0.00 | 80 | 1029.3 |
| 20260507150844 | 56 | 69 | 1.0 | 4.0 | 0.00 | 0.00 | 0.00 | 81 | 1029.3 |
| 20260507150344 | 55 | 43 | 1.0 | 4.0 | 0.00 | 0.00 | 0.00 | 82 | 1029.3 |
| 20260507145846 | 55 | 311 | 1.0 | 4.0 | 0.00 | 0.00 | 0.00 | 82 | 1029.3 |
| 20260507145340 | 55 | 31 | 1.0 | 6.0 | 0.00 | 0.00 | 0.00 | 82 | 1029.3 |
| 20260507144840 | 55 | 271 | 2.0 | 6.0 | 0.00 | 0.00 | 0.00 | 82 | 1029.1 |
| 20260507144342 | 55 | 340 | 2.0 | 5.0 | 0.00 | 0.00 | 0.00 | 82 | 1029.2 |
| 20260507143840 | 55 | 32 | 2.0 | 5.0 | 0.00 | 0.00 | 0.00 | 81 | 1029.1 |
| 20260507143340 | 55 | 46 | 1.0 | 4.0 | 0.00 | 0.00 | 0.00 | 81 | 1029.1 |
| 20260507142842 | 55 | 40 | 0.0 | 4.0 | 0.00 | 0.00 | 0.00 | 82 | 1029.0 |
| 20260507142336 | 55 | 338 | 1.0 | 3.0 | 0.00 | 0.00 | 0.00 | 82 | 1029.1 |
| 20260507141837 | 55 | 0 | 1.0 | 3.0 | 0.00 | 0.00 | 0.00 | 82 | 1029.0 |
| 20260507141336 | 55 | 0 | 1.0 | 3.0 | 0.00 | 0.00 | 0.00 | 83 | 1028.8 |
| 20260507140836 | 55 | 342 | 1.0 | 3.0 | 0.00 | 0.00 | 0.00 | 83 | 1028.9 |
| 20260507140336 | 54 | 339 | 1.0 | 3.0 | 0.00 | 0.00 | 0.00 | 83 | 1028.7 |
| 20260507135838 | 54 | 17 | 1.0 | 3.0 | 0.00 | 0.00 | 0.00 | 83 | 1028.8 |
| 20260507135336 | 54 | 0 | 0.0 | 3.0 | 0.00 | 0.00 | 0.00 | 83 | 1028.8 |
| 20260507134837 | 54 | 328 | 0.0 | 2.0 | 0.00 | 0.00 | 0.00 | 83 | 1028.7 |
| 20260507134338 | 54 | 331 | 0.0 | 2.0 | 0.00 | 0.00 | 0.00 | 83 | 1028.8 |
| 20260507133836 | 54 | 331 | 0.0 | 2.0 | 0.00 | 0.00 | 0.00 | 84 | 1028.8 |
| 20260507133336 | 54 | 331 | 0.0 | 3.0 | 0.00 | 0.00 | 0.00 | 83 | 1028.7 |
| 20260507132834 | 54 | 319 | 0.0 | 3.0 | 0.00 | 0.00 | 0.00 | 83 | 1028.7 |
| 20260507132335 | 54 | 314 | 0.0 | 2.0 | 0.00 | 0.00 | 0.00 | 83 | 1028.8 |
| 20260507131834 | 54 | 34 | 0.0 | 2.0 | 0.00 | 0.00 | 0.00 | 83 | 1028.7 |
| 20260507131335 | 54 | 34 | 1.0 | 3.0 | 0.00 | 0.00 | 0.00 | 83 | 1028.9 |
| 20260507130833 | 54 | 35 | 1.0 | 3.0 | 0.00 | 0.00 | 0.00 | 83 | 1028.9 |
| 20260507130330 | 55 | 348 | 1.0 | 3.0 | 0.00 | 0.00 | 0.00 | 83 | 1028.9 |
| 20260507125830 | 54 | 14 | 1.0 | 4.0 | 0.00 | 0.00 | 0.00 | 82 | 1029.0 |
| 20260507125330 | 55 | 17 | 1.0 | 4.0 | 0.00 | 0.00 | 0.00 | 81 | 1028.8 |
| 20260507124828 | 54 | 39 | 1.0 | 4.0 | 0.00 | 0.00 | 0.00 | 81 | 1028.9 |
| 20260507124328 | 55 | 66 | 1.0 | 4.0 | 0.00 | 0.00 | 0.00 | 81 | 1028.9 |
| 20260507123825 | 55 | 0 | 1.0 | 4.0 | 0.00 | 0.00 | 0.00 | 81 | 1029.0 |
| 20260507123324 | 55 | 28 | 1.0 | 4.0 | 0.00 | 0.00 | 0.00 | 81 | 1028.8 |
| 20260507122822 | 55 | 74 | 0.0 | 4.0 | 0.00 | 0.00 | 0.00 | 82 | 1029.0 |
| 20260507122322 | 55 | 37 | 1.0 | 4.0 | 0.00 | 0.00 | 0.00 | 81 | 1028.9 |
| 20260507121823 | 55 | 20 | 1.0 | 4.0 | 0.00 | 0.00 | 0.00 | 81 | 1028.9 |
| 20260507121322 | 55 | 17 | 1.0 | 3.0 | 0.00 | 0.00 | 0.00 | 81 | 1029.0 |
| 20260507120818 | 55 | 34 | 1.0 | 4.0 | 0.00 | 0.00 | 0.00 | 82 | 1028.9 |
| 20260507120315 | 55 | 16 | 1.0 | 5.0 | 0.00 | 0.00 | 0.00 | 81 | 1029.0 |
| 20260507115812 | 55 | 0 | 2.0 | 5.0 | 0.00 | 0.00 | 0.00 | 81 | 1029.1 |
| 20260507115310 | 55 | 33 | 2.0 | 4.0 | 0.00 | 0.00 | 0.00 | 82 | 1029.1 |
| 20260507114810 | 55 | 346 | 1.0 | 4.0 | 0.00 | 0.00 | 0.00 | 83 | 1029.2 |
| 20260507114304 | 54 | 27 | 1.0 | 4.0 | 0.00 | 0.00 | 0.00 | 85 | 1029.1 |
| 20260507113804 | 54 | 61 | 0.0 | 3.0 | 0.00 | 0.00 | 0.00 | 86 | 1029.3 |
| 20260507113304 | 54 | 341 | 1.0 | 3.0 | 0.00 | 0.00 | 0.00 | 87 | 1029.2 |
| 20260507112804 | 54 | 347 | 1.0 | 3.0 | 0.00 | 0.00 | 0.00 | 87 | 1029.4 |
| 20260507112307 | 54 | 277 | 1.0 | 3.0 | 0.00 | 0.00 | 0.00 | 87 | 1029.3 |
| 20260507111805 | 54 | 279 | 1.0 | 3.0 | 0.00 | 0.00 | 0.00 | 87 | 1029.4 |
| 20260507111259 | 54 | 288 | 0.0 | 3.0 | 0.00 | 0.00 | 0.00 | 87 | 1029.3 |
| 20260507110758 | 54 | 293 | 0.0 | 2.0 | 0.00 | 0.00 | 0.00 | 87 | 1029.5 |
| 20260507110259 | 54 | 293 | 1.0 | 2.0 | 0.00 | 0.00 | 0.00 | 87 | 1029.4 |
| 20260507105802 | 54 | 301 | 1.0 | 3.0 | 0.00 | 0.00 | 0.00 | 87 | 1029.4 |
| 20260507105258 | 54 | 300 | 1.0 | 4.0 | 0.00 | 0.00 | 0.00 | 87 | 1029.4 |
| 20260507104757 | 54 | 299 | 1.0 | 4.0 | 0.00 | 0.00 | 0.00 | 87 | 1029.5 |
| 20260507104252 | 54 | 303 | 0.0 | 3.0 | 0.00 | 0.00 | 0.00 | 87 | 1029.5 |
| 20260507103752 | 54 | 355 | 1.0 | 3.0 | 0.00 | 0.00 | 0.00 | 87 | 1029.6 |
| 20260507103252 | 54 | 284 | 1.0 | 3.0 | 0.00 | 0.00 | 0.00 | 87 | 1029.7 |
| 20260507102752 | 55 | 296 | 1.0 | 3.0 | 0.00 | 0.00 | 0.00 | 87 | 1029.6 |
| 20260507102252 | 55 | 289 | 1.0 | 4.0 | 0.00 | 0.00 | 0.00 | 87 | 1029.6 |
| 20260507101753 | 55 | 0 | 1.0 | 4.0 | 0.00 | 0.00 | 0.00 | 87 | 1029.7 |
| 20260507101250 | 55 | 260 | 1.0 | 3.0 | 0.00 | 0.00 | 0.00 | 86 | 1029.8 |
| 20260507100748 | 55 | 335 | 1.0 | 3.0 | 0.00 | 0.00 | 0.00 | 86 | 1029.8 |
| 20260507100249 | 55 | 286 | 1.0 | 4.0 | 0.00 | 0.00 | 0.00 | 86 | 1029.8 |
| 20260507095748 | 55 | 331 | 1.0 | 4.0 | 0.00 | 0.00 | 0.00 | 87 | 1029.9 |
| 20260507095246 | 55 | 0 | 1.0 | 3.0 | 0.00 | 0.00 | 0.00 | 87 | 1029.9 |
| 20260507094746 | 55 | 286 | 1.0 | 3.0 | 0.00 | 0.00 | 0.00 | 87 | 1029.8 |
| 20260507094244 | 55 | 277 | 1.0 | 3.0 | 0.00 | 0.00 | 0.00 | 87 | 1030.0 |
| 20260507093744 | 55 | 315 | 1.0 | 3.0 | 0.00 | 0.00 | 0.00 | 87 | 1029.9 |
| 20260507093245 | 55 | 270 | 1.0 | 4.0 | 0.00 | 0.00 | 0.00 | 87 | 1029.9 |
| 20260507092742 | 55 | 271 | 1.0 | 4.0 | 0.00 | 0.00 | 0.00 | 86 | 1029.9 |
| 20260507092240 | 55 | 259 | 1.0 | 4.0 | 0.00 | 0.00 | 0.00 | 86 | 1029.9 |
| 20260507091741 | 55 | 286 | 1.0 | 3.0 | 0.00 | 0.00 | 0.00 | 86 | 1030.0 |
| 20260507091235 | 55 | 275 | 1.0 | 4.0 | 0.00 | 0.00 | 0.00 | 86 | 1030.0 |
| 20260507090734 | 55 | 273 | 1.0 | 4.0 | 0.00 | 0.00 | 0.00 | 86 | 1030.1 |
| 20260507090233 | 55 | 281 | 1.0 | 4.0 | 0.00 | 0.00 | 0.00 | 86 | 1030.0 |
| 20260507085734 | 55 | 265 | 1.0 | 4.0 | 0.00 | 0.00 | 0.00 | 86 | 1030.1 |
| 20260507085234 | 55 | 299 | 1.0 | 2.0 | 0.00 | 0.00 | 0.00 | 86 | 1030.1 |
| 20260507084734 | 55 | 318 | 1.0 | 3.0 | 0.00 | 0.00 | 0.00 | 86 | 1030.0 |
| 20260507084232 | 55 | 251 | 1.0 | 3.0 | 0.00 | 0.00 | 0.00 | 86 | 1030.1 |
| 20260507083732 | 55 | 271 | 1.0 | 4.0 | 0.00 | 0.00 | 0.00 | 86 | 1030.2 |
| 20260507083233 | 55 | 300 | 1.0 | 4.0 | 0.00 | 0.00 | 0.00 | 86 | 1030.1 |
| 20260507082729 | 55 | 10 | 0.0 | 3.0 | 0.00 | 0.00 | 0.00 | 86 | 1030.1 |
| 20260507082228 | 55 | 194 | 0.0 | 1.0 | 0.00 | 0.00 | 0.00 | 86 | 1030.0 |
| 20260507081728 | 55 | 194 | 0.0 | 1.0 | 0.00 | 0.00 | 0.00 | 86 | 1030.1 |
| 20260507081224 | 55 | 193 | 0.0 | 1.0 | 0.00 | 0.00 | 0.00 | 86 | 1030.1 |
| 20260507080724 | 55 | 194 | 0.0 | 1.0 | 0.00 | 0.00 | 0.00 | 86 | 1030.1 |
| 20260507080225 | 55 | 194 | 0.0 | 0.0 | 0.00 | 0.00 | 0.00 | 86 | 1030.2 |
| 20260507075724 | 55 | 194 | 0.0 | 2.0 | 0.00 | 0.00 | 0.00 | 86 | 1030.2 |
| 20260507075222 | 55 | 193 | 0.0 | 2.0 | 0.00 | 0.00 | 0.00 | 86 | 1030.2 |
| 20260507074722 | 55 | 191 | 0.0 | 2.0 | 0.00 | 0.00 | 0.00 | 86 | 1030.2 |
| 20260507074216 | 55 | 300 | 0.0 | 1.0 | 0.00 | 0.00 | 0.00 | 86 | 1030.2 |
| 20260507073716 | 55 | 300 | 0.0 | 2.0 | 0.00 | 0.00 | 0.00 | 86 | 1030.3 |
| 20260507073213 | 55 | 301 | 0.0 | 2.0 | 0.00 | 0.00 | 0.00 | 86 | 1030.2 |
| 20260507072710 | 55 | 300 | 0.0 | 2.0 | 0.00 | 0.00 | 0.00 | 85 | 1030.2 |
| 20260507072210 | 55 | 300 | 1.0 | 3.0 | 0.00 | 0.00 | 0.00 | 85 | 1030.1 |
| 20260507071709 | 55 | 303 | 1.0 | 3.0 | 0.00 | 0.00 | 0.00 | 85 | 1030.1 |
| 20260507071206 | 55 | 281 | 1.0 | 3.0 | 0.00 | 0.00 | 0.00 | 85 | 1030.1 |
| 20260507070703 | 55 | 318 | 0.0 | 2.0 | 0.00 | 0.00 | 0.00 | 85 | 1030.1 |
| 20260507070205 | 55 | 336 | 0.0 | 2.0 | 0.00 | 0.00 | 0.00 | 85 | 1030.1 |
| 20260507065704 | 55 | 327 | 0.0 | 2.0 | 0.00 | 0.00 | 0.00 | 85 | 1030.1 |
| 20260507065204 | 55 | 315 | 1.0 | 2.0 | 0.00 | 0.00 | 0.00 | 85 | 1030.0 |
| 20260507064700 | 55 | 308 | 1.0 | 2.0 | 0.00 | 0.00 | 0.00 | 85 | 1030.1 |
| 20260507064200 | 55 | 327 | 0.0 | 3.0 | 0.00 | 0.00 | 0.00 | 85 | 1030.1 |
| 20260507063658 | 55 | 327 | 0.0 | 3.0 | 0.00 | 0.00 | 0.00 | 85 | 1030.1 |
| 20260507063200 | 55 | 296 | 0.0 | 1.0 | 0.00 | 0.00 | 0.00 | 85 | 1030.0 |
| 20260507062658 | 55 | 296 | 0.0 | 2.0 | 0.00 | 0.00 | 0.00 | 85 | 1030.0 |
| 20260507062157 | 55 | 296 | 0.0 | 3.0 | 0.00 | 0.00 | 0.00 | 85 | 1030.1 |
| 20260507061652 | 55 | 309 | 0.0 | 3.0 | 0.00 | 0.00 | 0.00 | 85 | 1030.1 |
| 20260507061151 | 55 | 239 | 0.0 | 3.0 | 0.00 | 0.00 | 0.00 | 85 | 1030.1 |
| 20260507060647 | 55 | 236 | 1.0 | 4.0 | 0.00 | 0.00 | 0.00 | 85 | 1030.1 |
| 20260507060145 | 55 | 228 | 1.0 | 4.0 | 0.00 | 0.00 | 0.00 | 85 | 1030.0 |
| 20260507055647 | 55 | 276 | 1.0 | 3.0 | 0.00 | 0.00 | 0.00 | 85 | 1030.1 |
| 20260507055140 | 55 | 247 | 1.0 | 4.0 | 0.00 | 0.00 | 0.00 | 85 | 1030.1 |
| 20260507054640 | 55 | 246 | 2.0 | 6.0 | 0.00 | 0.00 | 0.00 | 84 | 1030.0 |
| 20260507054140 | 55 | 242 | 2.0 | 6.0 | 0.00 | 0.00 | 0.00 | 84 | 1030.1 |
| 20260507053639 | 55 | 269 | 2.0 | 6.0 | 0.00 | 0.00 | 0.00 | 84 | 1030.1 |
| 20260507053139 | 55 | 258 | 2.0 | 6.0 | 0.00 | 0.00 | 0.00 | 84 | 1030.2 |
| 20260507052641 | 55 | 244 | 2.0 | 6.0 | 0.00 | 0.00 | 0.00 | 84 | 1030.2 |
| 20260507052135 | 55 | 280 | 2.0 | 8.0 | 0.00 | 0.00 | 0.00 | 84 | 1030.2 |
| 20260507051635 | 55 | 253 | 2.0 | 8.0 | 0.00 | 0.00 | 0.00 | 84 | 1030.1 |
| 20260507051134 | 55 | 255 | 2.0 | 6.0 | 0.00 | 0.00 | 0.00 | 84 | 1030.2 |
| 20260507050634 | 55 | 279 | 3.0 | 8.0 | 0.00 | 0.00 | 0.00 | 84 | 1030.1 |
| 20260507050134 | 55 | 253 | 3.0 | 8.0 | 0.00 | 0.00 | 0.00 | 84 | 1030.0 |
| 20260507045635 | 55 | 292 | 2.0 | 8.0 | 0.00 | 0.00 | 0.00 | 84 | 1030.0 |
| 20260507045130 | 55 | 283 | 2.0 | 7.0 | 0.00 | 0.00 | 0.00 | 84 | 1030.0 |
| 20260507044629 | 55 | 267 | 2.0 | 7.0 | 0.00 | 0.00 | 0.00 | 84 | 1030.1 |
| 20260507044131 | 55 | 242 | 2.0 | 4.0 | 0.00 | 0.00 | 0.00 | 83 | 1030.0 |
| 20260507043630 | 55 | 277 | 2.0 | 6.0 | 0.00 | 0.00 | 0.00 | 83 | 1030.1 |
| 20260507043128 | 55 | 262 | 1.0 | 6.0 | 0.00 | 0.00 | 0.00 | 83 | 1029.9 |
| 20260507042629 | 56 | 277 | 0.0 | 2.0 | 0.00 | 0.00 | 0.00 | 83 | 1030.0 |
| 20260507042126 | 56 | 277 | 0.0 | 3.0 | 0.00 | 0.00 | 0.00 | 83 | 1029.9 |
| 20260507041623 | 56 | 276 | 1.0 | 4.0 | 0.00 | 0.00 | 0.00 | 83 | 1029.9 |
| 20260507041125 | 56 | 277 | 1.0 | 8.0 | 0.00 | 0.00 | 0.00 | 83 | 1029.8 |
| 20260507040624 | 56 | 277 | 2.0 | 8.0 | 0.00 | 0.00 | 0.00 | 82 | 1029.7 |
| 20260507040122 | 56 | 220 | 2.0 | 4.0 | 0.00 | 0.00 | 0.00 | 82 | 1029.6 |
| 20260507035623 | 56 | 267 | 2.0 | 7.0 | 0.00 | 0.00 | 0.00 | 82 | 1029.4 |
| 20260507035116 | 57 | 317 | 2.0 | 7.0 | 0.00 | 0.00 | 0.00 | 82 | 1029.4 |
| 20260507034615 | 57 | 290 | 3.0 | 7.0 | 0.00 | 0.00 | 0.00 | 82 | 1029.3 |
| 20260507034115 | 57 | 277 | 3.0 | 8.0 | 0.00 | 0.00 | 0.00 | 82 | 1029.3 |
| 20260507033615 | 57 | 249 | 3.0 | 8.0 | 0.00 | 0.00 | 0.00 | 81 | 1029.2 |
| 20260507033115 | 58 | 293 | 3.0 | 8.0 | 0.00 | 0.00 | 0.00 | 81 | 1029.1 |
| 20260507032617 | 58 | 267 | 3.0 | 8.0 | 0.00 | 0.00 | 0.00 | 81 | 1029.1 |
| 20260507032110 | 58 | 265 | 4.0 | 8.0 | 0.00 | 0.00 | 0.00 | 80 | 1029.0 |
| 20260507031610 | 59 | 313 | 4.0 | 8.0 | 0.00 | 0.00 | 0.00 | 79 | 1029.0 |
| 20260507031110 | 59 | 267 | 3.0 | 8.0 | 0.00 | 0.00 | 0.00 | 79 | 1028.9 |
| 20260507030609 | 60 | 25 | 3.0 | 8.0 | 0.00 | 0.00 | 0.00 | 78 | 1028.9 |
| 20260507030109 | 60 | 350 | 3.0 | 6.0 | 0.00 | 0.00 | 0.00 | 78 | 1028.8 |
| 20260507025610 | 61 | 282 | 2.0 | 5.0 | 0.00 | 0.00 | 0.00 | 77 | 1028.8 |
| 20260507025110 | 61 | 302 | 2.0 | 7.0 | 0.00 | 0.00 | 0.00 | 77 | 1028.7 |
| 20260507024610 | 61 | 276 | 2.0 | 7.0 | 0.00 | 0.00 | 0.00 | 76 | 1028.8 |
| 20260507024111 | 62 | 273 | 3.0 | 6.0 | 0.00 | 0.00 | 0.00 | 76 | 1028.8 |
| 20260507023605 | 62 | 279 | 3.0 | 8.0 | 0.00 | 0.00 | 0.00 | 75 | 1028.7 |
| 20260507023106 | 62 | 287 | 4.0 | 8.0 | 0.00 | 0.00 | 0.00 | 75 | 1028.7 |
| 20260507022605 | 63 | 259 | 3.0 | 8.0 | 0.00 | 0.00 | 0.00 | 74 | 1028.7 |
| 20260507022107 | 63 | 323 | 3.0 | 9.0 | 0.00 | 0.00 | 0.00 | 74 | 1028.7 |
| 20260507021606 | 63 | 275 | 3.0 | 9.0 | 0.00 | 0.00 | 0.00 | 74 | 1028.6 |
| 20260507021105 | 64 | 274 | 4.0 | 10.0 | 0.00 | 0.00 | 0.00 | 73 | 1028.7 |
| 20260507020607 | 64 | 271 | 4.0 | 11.0 | 0.00 | 0.00 | 0.00 | 73 | 1028.8 |
| 20260507015602 | 65 | 355 | 4.0 | 10.0 | 0.00 | 0.00 | 0.00 | 72 | 1028.8 |
| 20260507015104 | 65 | 281 | 5.0 | 11.0 | 0.00 | 0.00 | 0.00 | 72 | 1028.8 |
| 20260507014602 | 65 | 301 | 4.0 | 11.0 | 0.00 | 0.00 | 0.00 | 71 | 1028.9 |
| 20260507014101 | 66 | 313 | 3.0 | 9.0 | 0.00 | 0.00 | 0.00 | 71 | 1028.7 |
| 20260507013602 | 66 | 255 | 3.0 | 9.0 | 0.00 | 0.00 | 0.00 | 71 | 1028.6 |
| 20260507013058 | 66 | 256 | 3.0 | 8.0 | 0.00 | 0.00 | 0.00 | 71 | 1028.7 |
| 20260507012559 | 66 | 258 | 3.0 | 8.0 | 0.00 | 0.00 | 0.00 | 71 | 1028.6 |
| 20260507012058 | 67 | 281 | 4.0 | 9.0 | 0.00 | 0.00 | 0.00 | 70 | 1028.6 |
| 20260507011558 | 67 | 242 | 4.0 | 9.0 | 0.00 | 0.00 | 0.00 | 69 | 1028.6 |
| 20260507011057 | 67 | 256 | 4.0 | 8.0 | 0.00 | 0.00 | 0.00 | 69 | 1028.6 |
| 20260507010559 | 67 | 300 | 4.0 | 10.0 | 0.00 | 0.00 | 0.00 | 70 | 1028.6 |
| 20260507010052 | 68 | 288 | 4.0 | 10.0 | 0.00 | 0.00 | 0.00 | 69 | 1028.7 |
| 20260507005553 | 68 | 292 | 4.0 | 9.0 | 0.00 | 0.00 | 0.00 | 69 | 1028.8 |
| 20260507005052 | 68 | 283 | 4.0 | 8.0 | 0.00 | 0.00 | 0.00 | 69 | 1028.6 |
| 20260507004552 | 69 | 280 | 4.0 | 10.0 | 0.00 | 0.00 | 0.00 | 68 | 1028.7 |
| 20260507004045 | 69 | 284 | 4.0 | 10.0 | 0.00 | 0.00 | 0.00 | 68 | 1028.8 |
| 20260507003545 | 69 | 306 | 4.0 | 13.0 | 0.00 | 0.00 | 0.00 | 68 | 1028.7 |
| 20260507003044 | 69 | 302 | 5.0 | 13.0 | 0.00 | 0.00 | 0.00 | 68 | 1028.6 |
| 20260507002544 | 69 | 338 | 5.0 | 13.0 | 0.00 | 0.00 | 0.00 | 68 | 1028.6 |
| 20260507002043 | 69 | 304 | 5.0 | 12.0 | 0.00 | 0.00 | 0.00 | 68 | 1028.6 |
| 20260507001544 | 69 | 316 | 5.0 | 12.0 | 0.00 | 0.00 | 0.00 | 67 | 1028.6 |
| 20260507001038 | 69 | 344 | 5.0 | 11.0 | 0.00 | 0.00 | 0.00 | 68 | 1028.5 |
| 20260507000537 | 70 | 355 | 5.0 | 11.0 | 0.00 | 0.00 | 0.00 | 68 | 1028.4 |
| 20260507000037 | 70 | 323 | 5.0 | 11.0 | 0.00 | 0.00 | 0.00 | 68 | 1028.4 |
| 20260506235537 | 70 | 291 | 5.0 | 11.0 | 0.00 | 0.00 | 0.00 | 67 | 1028.3 |
| 20260506235038 | 70 | 261 | 5.0 | 13.0 | 0.00 | 0.00 | 0.00 | 67 | 1028.3 |
| 20260506234537 | 71 | 5 | 5.0 | 10.0 | 0.00 | 0.00 | 0.00 | 67 | 1028.4 |
| 20260506234032 | 71 | 298 | 5.0 | 11.0 | 0.00 | 0.00 | 0.00 | 66 | 1028.4 |
| 20260506233531 | 71 | 0 | 5.0 | 11.0 | 0.00 | 0.00 | 0.00 | 67 | 1028.3 |
| 20260506233032 | 71 | 290 | 4.0 | 10.0 | 0.00 | 0.00 | 0.00 | 66 | 1028.2 |
| 20260506232531 | 72 | 294 | 4.0 | 12.0 | 0.00 | 0.00 | 0.00 | 67 | 1028.1 |
| 20260506232031 | 72 | 236 | 4.0 | 12.0 | 0.00 | 0.00 | 0.00 | 67 | 1028.2 |
| 20260506231532 | 72 | 261 | 5.0 | 9.0 | 0.00 | 0.00 | 0.00 | 67 | 1028.3 |
| 20260506231026 | 72 | 261 | 5.0 | 9.0 | 0.00 | 0.00 | 0.00 | 67 | 1028.3 |
| 20260506230525 | 73 | 251 | 4.0 | 9.0 | 0.00 | 0.00 | 0.00 | 67 | 1028.3 |
| 20260506230025 | 73 | 282 | 3.0 | 9.0 | 0.00 | 0.00 | 0.00 | 67 | 1028.3 |
| 20260506225525 | 73 | 283 | 3.0 | 9.0 | 0.00 | 0.00 | 0.00 | 66 | 1028.4 |
| 20260506225025 | 73 | 321 | 3.0 | 9.0 | 0.00 | 0.00 | 0.00 | 65 | 1028.5 |
| 20260506224525 | 73 | 265 | 3.0 | 8.0 | 0.00 | 0.00 | 0.00 | 65 | 1028.5 |
| 20260506224019 | 73 | 273 | 3.0 | 9.0 | 0.00 | 0.00 | 0.00 | 64 | 1028.6 |
| 20260506223519 | 74 | 267 | 2.0 | 9.0 | 0.00 | 0.00 | 0.00 | 62 | 1028.6 |
| 20260506223019 | 73 | 175 | 2.0 | 4.0 | 0.00 | 0.00 | 0.00 | 62 | 1028.6 |
| 20260506222519 | 73 | 251 | 2.0 | 7.0 | 0.00 | 0.00 | 0.00 | 62 | 1028.7 |
| 20260506222019 | 73 | 36 | 2.0 | 7.0 | 0.00 | 0.00 | 0.00 | 65 | 1028.6 |
| 20260506221520 | 73 | 299 | 2.0 | 6.0 | 0.00 | 0.00 | 0.00 | 66 | 1028.7 |
| 20260506221016 | 72 | 216 | 3.0 | 7.0 | 0.00 | 0.00 | 0.00 | 65 | 1028.8 |
| 20260506220515 | 72 | 276 | 2.0 | 7.0 | 0.00 | 0.00 | 0.00 | 66 | 1028.8 |
| 20260506220016 | 72 | 221 | 2.0 | 6.0 | 0.00 | 0.00 | 0.00 | 67 | 1028.8 |
| 20260506215515 | 71 | 157 | 2.0 | 5.0 | 0.00 | 0.00 | 0.00 | 65 | 1028.8 |
| 20260506215013 | 71 | 165 | 2.0 | 7.0 | 0.00 | 0.00 | 0.00 | 67 | 1028.8 |
| 20260506214514 | 71 | 261 | 3.0 | 7.0 | 0.00 | 0.00 | 0.00 | 67 | 1028.9 |
| 20260506214011 | 71 | 219 | 3.0 | 7.0 | 0.00 | 0.00 | 0.00 | 69 | 1028.8 |
| 20260506213509 | 71 | 259 | 2.0 | 6.0 | 0.00 | 0.00 | 0.00 | 69 | 1028.8 |
| 20260506213011 | 71 | 237 | 1.0 | 5.0 | 0.00 | 0.00 | 0.00 | 71 | 1028.7 |
| 20260506212509 | 71 | 319 | 2.0 | 6.0 | 0.00 | 0.00 | 0.00 | 69 | 1028.7 |
| 20260506212007 | 71 | 344 | 2.0 | 7.0 | 0.00 | 0.00 | 0.00 | 69 | 1028.9 |
| 20260506211506 | 70 | 210 | 2.0 | 7.0 | 0.00 | 0.00 | 0.00 | 72 | 1028.8 |
| 20260506211005 | 69 | 176 | 2.0 | 7.0 | 0.00 | 0.00 | 0.00 | 74 | 1028.8 |
| 20260506210505 | 68 | 202 | 1.0 | 6.0 | 0.00 | 0.00 | 0.00 | 76 | 1028.9 |
| 20260506210006 | 68 | 323 | 1.0 | 5.0 | 0.00 | 0.00 | 0.00 | 73 | 1028.9 |
| 20260506205504 | 68 | 315 | 2.0 | 5.0 | 0.00 | 0.00 | 0.00 | 74 | 1029.1 |
| 20260506205001 | 68 | 232 | 1.0 | 5.0 | 0.00 | 0.00 | 0.00 | 74 | 1029.1 |
| 20260506204502 | 67 | 83 | 1.0 | 4.0 | 0.00 | 0.00 | 0.00 | 76 | 1029.1 |
| 20260506203957 | 67 | 245 | 2.0 | 6.0 | 0.00 | 0.00 | 0.00 | 75 | 1029.2 |
| 20260506203457 | 67 | 234 | 3.0 | 7.0 | 0.00 | 0.00 | 0.00 | 74 | 1029.2 |
| 20260506202955 | 68 | 244 | 3.0 | 7.0 | 0.00 | 0.00 | 0.00 | 73 | 1029.3 |
| 20260506202456 | 69 | 279 | 2.0 | 6.0 | 0.00 | 0.00 | 0.00 | 73 | 1029.3 |
| 20260506201955 | 69 | 215 | 1.0 | 6.0 | 0.00 | 0.00 | 0.00 | 71 | 1029.2 |
| 20260506201456 | 70 | 152 | 2.0 | 6.0 | 0.00 | 0.00 | 0.00 | 73 | 1029.2 |
| 20260506200950 | 69 | 175 | 3.0 | 8.0 | 0.00 | 0.00 | 0.00 | 74 | 1029.2 |
| 20260506200449 | 69 | 175 | 3.0 | 8.0 | 0.00 | 0.00 | 0.00 | 73 | 1029.4 |
| 20260506195949 | 69 | 190 | 2.0 | 8.0 | 0.00 | 0.00 | 0.00 | 73 | 1029.4 |
| 20260506195449 | 70 | 227 | 3.0 | 8.0 | 0.00 | 0.00 | 0.00 | 72 | 1029.3 |
| 20260506194949 | 70 | 118 | 3.0 | 8.0 | 0.00 | 0.00 | 0.00 | 73 | 1029.4 |
| 20260506194449 | 70 | 211 | 3.0 | 12.0 | 0.00 | 0.00 | 0.00 | 74 | 1029.5 |
| 20260506193945 | 69 | 186 | 3.0 | 12.0 | 0.00 | 0.00 | 0.00 | 75 | 1029.4 |
| 20260506193445 | 68 | 148 | 3.0 | 10.0 | 0.00 | 0.00 | 0.00 | 78 | 1029.4 |
| 20260506192945 | 67 | 117 | 3.0 | 10.0 | 0.00 | 0.00 | 0.00 | 76 | 1029.4 |
| 20260506192445 | 67 | 171 | 3.0 | 9.0 | 0.00 | 0.00 | 0.00 | 77 | 1029.4 |
| 20260506191942 | 67 | 161 | 3.0 | 8.0 | 0.00 | 0.00 | 0.00 | 78 | 1029.3 |